East Taunton, MA

1:16 AM EDT on August 30, 2016 (GMT -0400)
Taunton Municipal

Weather History for KTAN - November, 2014

Change the Weather History Date:

Sunday, November 30, 2014

  Actual Average Record
Temperature  
Mean Temperature 44 °F -  
Max Temperature 57 °F 45 °F 66 °F (2001)
Min Temperature 30 °F 28 °F 13 °F (1967)
Degree Days  
Heating Degree Days 22    
Moisture  
Dew Point 38 °F    
Average Humidity 71    
Maximum Humidity 88    
Minimum Humidity 47    
Precipitation  
Precipitation 0.00 in - - ()
Sea Level Pressure  
Sea Level Pressure 30.15 in    
Wind  
Wind Speed 5 mph (SSW)    
Max Wind Speed 17 mph    
Max Gust Speed 34 mph    
Visibility 10 miles    
Events      
Averages and records for this station are not official NWS values.
T = Trace of Precipitation, MM = Missing Value Source: NWS Daily Summary

Daily Weather History Graph

Daily Weather History Graph

Search for Another Location

Airport or City:

Trip Planner

Search our weather history database for the weather conditions in past years. The results will help you decide how hot, cold, wet, or windy it might be!

Date:

Astronomy

Nov. 30, 2014 Rise Set
Actual Time 6:51 AM EST 4:14 PM EST
Civil Twilight 6:20 AM EST 4:45 PM EST
Nautical Twilight 5:45 AM EST 5:19 PM EST
Astronomical Twilight 5:11 AM EST 5:53 PM EST
Moon 12:47 PM EST 12:12 AM EST
Length of Visible Light 10h 25m
Length of Day
9h 23m
Waxing Gibbous, 64% of the Moon is Illuminated
Nov 30
Waxing Gibbous
Dec 6
Full
Dec 14
Last Quarter
Dec 21
New
Dec 28
First Quarter

Hourly Weather History & Observations

Time (EST) Temp. Windchill Dew Point Humidity Pressure Visibility Wind Dir Wind Speed Gust Speed Precip Events Conditions
12:52 AM 32.0 °F - 27.0 °F 82% 30.26 in 10.0 mi Calm Calm - N/A   Overcast
1:04 AM 32.0 °F - 27.0 °F 82% 30.26 in 10.0 mi Calm Calm - N/A   Overcast
1:29 AM 30.9 °F - 26.1 °F 82% 30.25 in 10.0 mi Calm Calm - N/A   Overcast
1:52 AM 30.0 °F - 26.1 °F 85% 30.26 in 10.0 mi Calm Calm - N/A   Mostly Cloudy
2:52 AM 32.0 °F - 28.9 °F 88% 30.24 in 10.0 mi Calm Calm - N/A   Overcast
3:52 AM 33.1 °F - 28.9 °F 85% 30.24 in 10.0 mi Calm Calm - N/A   Overcast
4:52 AM 34.0 °F - 28.9 °F 82% 30.22 in 10.0 mi Calm Calm - N/A   Overcast
5:52 AM 39.9 °F 36.7 °F 36.0 °F 86% 30.21 in 10.0 mi SE 4.6 mph - N/A   Overcast
6:52 AM 46.9 °F - 41.0 °F 80% 30.20 in 10.0 mi South 6.9 mph - N/A   Overcast
7:52 AM 48.0 °F - 41.0 °F 77% 30.19 in 10.0 mi SE 4.6 mph - N/A   Overcast
8:52 AM 51.1 °F - 42.1 °F 71% 30.19 in 10.0 mi South 4.6 mph - N/A   Partly Cloudy
9:52 AM 55.0 °F - 41.0 °F 59% 30.18 in 10.0 mi SSW 8.1 mph 18.4 mph N/A   Clear
10:52 AM 55.9 °F - 39.9 °F 55% 30.14 in 10.0 mi SSW 12.7 mph 23.0 mph N/A   Clear
11:52 AM 55.9 °F - 36.0 °F 47% 30.12 in 10.0 mi SSW 17.3 mph 34.5 mph N/A   Clear
12:52 PM 57.0 °F - 37.9 °F 49% 30.09 in 10.0 mi SW 12.7 mph 29.9 mph N/A   Clear
1:52 PM 55.9 °F - 37.9 °F 51% 30.09 in 10.0 mi SSW 17.3 mph 27.6 mph N/A   Clear
2:52 PM 55.0 °F - 39.9 °F 57% 30.09 in 10.0 mi SSW 15.0 mph 21.9 mph N/A   Clear
3:52 PM 54.0 °F - 41.0 °F 62% 30.09 in 10.0 mi SSW 11.5 mph 17.3 mph N/A   Clear
4:52 PM 52.0 °F - 42.1 °F 69% 30.09 in 10.0 mi SSW 5.8 mph - N/A   Clear
5:52 PM 53.1 °F - 44.1 °F 71% 30.09 in 10.0 mi South 9.2 mph - N/A   Overcast
6:52 PM 53.1 °F - 45.0 °F 74% 30.09 in 10.0 mi SW 11.5 mph 23.0 mph N/A   Overcast
7:52 PM 53.1 °F - 45.0 °F 74% 30.08 in 10.0 mi SSW 9.2 mph 17.3 mph N/A   Overcast
8:52 PM 53.1 °F - 44.1 °F 71% 30.08 in 10.0 mi SW 12.7 mph 18.4 mph N/A   Overcast
9:52 PM 53.1 °F - 44.1 °F 71% 30.07 in 10.0 mi SW 10.4 mph 18.4 mph N/A   Overcast
10:52 PM 52.0 °F - 43.0 °F 71% 30.07 in 10.0 mi SW 8.1 mph - N/A   Overcast
11:52 PM 52.0 °F - 43.0 °F 71% 30.06 in 10.0 mi SW 5.8 mph - N/A   Overcast